Location: Unspecified
(35.6961°N, 0.0000°E)
Time: 21:15:16
(UTC+00:00)

Vanguard 2 Rocket - Pass Details

Date: 30 May 2019
Orbit: 554 x 3326 km, 32.9° (Epoch: 19 June)

Event Time Altitude Azimuth Distance (km) Brightness Sun altitude
Rises 23:21:10 0° 179° (S) 6,221 - -31.8°
Reaches altitude 10° 23:28:08 10° 159° (SSE) 5,709 - -32.0°
Maximum altitude 23:36:41 15° 130° (SE) 5,671 - -32.2°
Exits shadow 23:38:27 15° 124° (SE) 5,742 10.6 -32.3°
Drops below altitude 10° 23:45:53 10° 102° (ESE) 6,283 11.0 -32.4°
Sets 23:54:10 0° 84° (E) 7,222 11.5 -32.5°
